Regional Weather Roundup
Issued by NWS

Home | Current Version | Previous Version | Text Only | Print | Product List | Glossary On
Versions: 1 2 3 4 5 6 7 8 9 10 11 12 13 14 15 16 17 18 19 20 21 22 23 24 25 26 27 28 29 30 31 32 33 34 35 36 37 38 39 40 41 42 43 44 45 46 47 48 49 50
000
ASUS44 KMEG 230110
RWRTN
TENNESSEE HOURLY STATE WEATHER ROUNDUP
NATIONAL WEATHER SERVICE MEMPHIS TN
700 PM CST MON DEC 22 2014

TNZ002-004-019-021-049-052-054-088>092-230200-
WEST TENNESSEE

CITY           SKY/WX    TMP DP  RH WIND       PRES   REMARKS
MEMPHIS INTL   LGT RAIN  57  54  89 S7        29.63R FOG
NWS MEMPHIS      N/A     55 N/A N/A MISG        N/A
JACKSON        CLOUDY    55  52  89 S7        29.65R
DYERSBURG      CLOUDY    54  43  66 S5        29.64R
UNION CITY     CLOUDY    52  52 100 S10       29.62R
PARIS          MOCLDY    50  48  93 S9        29.65R
HUNTINGDON     CLOUDY    51  50  97 SE13      29.65R
LEXINGTON      CLOUDY    52  50  93 S9        29.66R
SAVANNAH       CLOUDY    52  52 100 S9        29.69R
$$

TNZ008-025-027-028-033-062-065-066-230200-
NORTH MIDDLE TENNESSEE

CITY           SKY/WX    TMP DP  RH WIND       PRES   REMARKS
NASHVILLE      CLOUDY    52  48  86 SE12      29.73F
CLARKSVILLE    LGT RAIN  52  49  89 SE13      29.68R
SMYRNA         CLOUDY    52  49  89 S5        29.75S
COOKEVILLE     CLOUDY    52  48  87 S9        29.76S
CROSSVILLE     CLOUDY    50  45  83 SE6       29.81S
$$

TNZ061-075-076-078-094-096-097-230200-
SOUTH MIDDLE TENNESSEE

CITY           SKY/WX    TMP DP  RH WIND       PRES   REMARKS
FAYETTEVILLE   CLOUDY    46  46 100 MISG      29.75S
TULLAHOMA      CLOUDY    48  46  93 SE8       29.76F
WINCHESTER     CLOUDY    48  46  93 SE9       29.79R
MCMINNVILLE    CLOUDY    52  52 100 CALM      29.76F
COLUMBIA       CLOUDY   N/A N/A N/A SE10      29.70S
SHELBYVILLE    CLOUDY    52  48  87 SE9       29.75F
$$

TNZ017-018-042-046-047-230200-
NORTHEAST TENNESSEE

CITY           SKY/WX    TMP DP  RH WIND       PRES   REMARKS
TRI CITIES     MOCLDY    47  39  74 NE5       29.92R
ELIZABETHTON   PTCLDY    48  39  71 E6        29.92F
$$

TNZ012-013-036-069-073-074-230200-
CENTRAL EAST TENNESSEE

CITY           SKY/WX    TMP DP  RH WIND       PRES   REMARKS
KNOXVILLE      MOCLDY    51  44  77 NW5       29.82F
OAK RIDGE      CLOUDY    51  47  86 CALM      29.84F
GATLINBURG     CLOUDY    48  45  87 CALM      29.83F
MORRISTOWN     PTCLDY    52  43  71 E7        29.85F
$$

TNZ083-085-099-230200-
SOUTHEAST TENNESSEE

CITY           SKY/WX    TMP DP  RH WIND       PRES   REMARKS
CHATTANOOGA    LGT RAIN  48  45  89 S8        29.86S
$$

SKY/WX REPORTED AS FAIR MEANS FEW OR NO CLOUDS BELOW
12 THOUSAND FEET.




USA.gov is the U.S. government's official web portal to all federal, state and local government web resources and services.